Location: Lowman
(44.0835°N, 115.6207°W)
Time: 19:03:29
(UTC+00:00)

Tiangong - Pass Details

Date: 03 December 2022
Orbit: 383 x 386 km, 41.5° (Epoch: 30 January)

Event Time Altitude Azimuth Distance (km) Brightness Sun altitude
Rises 01:59:04 0° 251° (WSW) 2,254 3.3 -19.9°
Reaches altitude 10° 02:01:11 10° 245° (WSW) 1,404 1.8 -20.2°
Enters shadow 02:03:54 43° 192° (SSW) 550 -1.3 -20.7°
